• In Österreich
  • Länderverzeichnis
  • Für 7 Tage
  • Wassertemperatur
  • Satellitenkarten
  • Wetterkarte
  • News
  • Widgets
  • user-avatar
    Anmelden

    Stündliche Wetter Soma Bey

    Heute, 19 April, Donnerstag

    Zeit Temperatur Niederschläge Wind Luftdruck Luftfeuchtigkeit
    00:00 +31°C° 0 mm 2 m/S 749 mmHg 12%
    01:00 +30°C° 0 mm 2 m/S 749 mmHg 13%
    02:00 +29°C° 0 mm 2 m/S 749 mmHg 13%
    03:00 +29°C° 0 mm 2 m/S 749 mmHg 14%
    04:00 +29°C° 0 mm 3 m/S 749 mmHg 15%
    05:00 +28°C° 0 mm 3 m/S 749 mmHg 16%
    06:00 +30°C° 0 mm 4 m/S 749 mmHg 16%
    07:00 +33°C° 0 mm 4 m/S 749 mmHg 15%
    08:00 +35°C° 0 mm 4 m/S 749 mmHg 15%
    09:00 +36°C° 0 mm 5 m/S 749 mmHg 14%
    10:00 +37°C° 0 mm 5 m/S 749 mmHg 14%
    11:00 +40°C° 0 mm 6 m/S 749 mmHg 13%
    12:00 +40°C° 0 mm 6 m/S 749 mmHg 14%
    13:00 +40°C° 0 mm 6 m/S 748 mmHg 14%
    14:00 +41°C° 0 mm 7 m/S 748 mmHg 14%
    15:00 +40°C° 0 mm 7 m/S 747 mmHg 15%
    16:00 +39°C° 0 mm 6 m/S 747 mmHg 16%
    17:00 +38°C° 0 mm 6 m/S 747 mmHg 16%
    18:00 +36°C° 0 mm 5 m/S 747 mmHg 19%
    19:00 +34°C° 0 mm 5 m/S 747 mmHg 21%
    20:00 +33°C° 0 mm 4 m/S 747 mmHg 24%
    21:00 +32°C° 0 mm 4 m/S 747 mmHg 24%
    22:00 +30°C° 0 mm 4 m/S 747 mmHg 24%
    23:00 +30°C° 0 mm 4 m/S 747 mmHg 24%

    Morgen, 20 April, Freitag

    Zeit Temperatur Niederschläge Wind Luftdruck Luftfeuchtigkeit
    00:00 +29°C° 0 mm 4 m/S 747 mmHg 24%
    01:00 +28°C° 0 mm 4 m/S 747 mmHg 24%
    02:00 +27°C° 0 mm 4 m/S 747 mmHg 23%
    03:00 +27°C° 0 mm 4 m/S 746 mmHg 23%
    04:00 +26°C° 0 mm 4 m/S 746 mmHg 23%
    05:00 +26°C° 0 mm 3 m/S 746 mmHg 23%
    06:00 +28°C° 0 mm 3 m/S 747 mmHg 19%
    07:00 +30°C° 0 mm 3 m/S 747 mmHg 16%
    08:00 +33°C° 0 mm 3 m/S 747 mmHg 12%
    09:00 +35°C° 0 mm 3 m/S 747 mmHg 12%
    10:00 +36°C° 0 mm 3 m/S 747 mmHg 11%
    11:00 +38°C° 0 mm 3 m/S 747 mmHg 10%
    12:00 +38°C° 0 mm 4 m/S 746 mmHg 10%
    13:00 +40°C° 0 mm 4 m/S 746 mmHg 10%
    14:00 +40°C° 0 mm 4 m/S 746 mmHg 10%
    15:00 +40°C° 0 mm 4 m/S 745 mmHg 12%
    16:00 +38°C° 0 mm 3 m/S 745 mmHg 13%
    17:00 +38°C° 0 mm 3 m/S 744 mmHg 14%
    18:00 +36°C° 0 mm 3 m/S 745 mmHg 16%
    19:00 +35°C° 0 mm 3 m/S 745 mmHg 17%
    20:00 +34°C° 0 mm 2 m/S 745 mmHg 19%
    21:00 +32°C° 0 mm 2 m/S 746 mmHg 19%
    22:00 +33°C° 0 mm 3 m/S 746 mmHg 19%
    23:00 +31°C° 0 mm 3 m/S 746 mmHg 19%

    übermorgen, 21 April, Samstag

    Zeit Temperatur Niederschläge Wind Luftdruck Luftfeuchtigkeit
    00:00 +31°C° 0 mm 3 m/S 745 mmHg 20%
    01:00 +30°C° 0 mm 3 m/S 745 mmHg 20%
    02:00 +30°C° 0 mm 2 m/S 745 mmHg 20%
    03:00 +29°C° 0 mm 2 m/S 745 mmHg 21%
    04:00 +29°C° 0 mm 2 m/S 744 mmHg 22%
    05:00 +28°C° 0 mm 2 m/S 744 mmHg 22%
    06:00 +30°C° 0 mm 2 m/S 745 mmHg 20%
    07:00 +32°C° 0 mm 1 m/S 745 mmHg 17%
    08:00 +34°C° 0 mm 1 m/S 745 mmHg 15%
    09:00 +37°C° 0 mm 2 m/S 745 mmHg 13%
    10:00 +40°C° 0 mm 4 m/S 745 mmHg 12%
    11:00 +42°C° 0 mm 5 m/S 745 mmHg 10%
    12:00 +42°C° 0 mm 6 m/S 744 mmHg 10%
    13:00 +43°C° 0 mm 7 m/S 743 mmHg 11%
    14:00 +44°C° 0 mm 8 m/S 743 mmHg 11%
    15:00 +43°C° 0 mm 7 m/S 742 mmHg 11%
    16:00 +43°C° 0 mm 7 m/S 742 mmHg 11%
    17:00 +43°C° 0 mm 7 m/S 742 mmHg 11%
    18:00 +41°C° 0 mm 6 m/S 742 mmHg 13%
    19:00 +40°C° 0 mm 5 m/S 742 mmHg 14%
    20:00 +37°C° 0 mm 5 m/S 742 mmHg 16%
    21:00 +37°C° 0 mm 4 m/S 742 mmHg 18%
    22:00 +36°C° 0 mm 4 m/S 743 mmHg 20%
    23:00 +35°C° 0 mm 4 m/S 743 mmHg 21%

    22 April, Sonntag

    Zeit Temperatur Niederschläge Wind Luftdruck Luftfeuchtigkeit
    00:00 +34°C° 0 mm 4 m/S 743 mmHg 24%
    01:00 +33°C° 0 mm 5 m/S 743 mmHg 26%
    02:00 +32°C° 0 mm 5 m/S 743 mmHg 29%
    03:00 +30°C° 0 mm 6 m/S 743 mmHg 31%
    04:00 +29°C° 0 mm 6 m/S 743 mmHg 32%
    05:00 +29°C° 0 mm 7 m/S 744 mmHg 34%
    06:00 +29°C° 0 mm 7 m/S 744 mmHg 31%
    07:00 +31°C° 0 mm 8 m/S 745 mmHg 28%
    08:00 +31°C° 0 mm 8 m/S 745 mmHg 24%
    09:00 +32°C° 0 mm 8 m/S 745 mmHg 21%
    10:00 +33°C° 0 mm 9 m/S 745 mmHg 18%
    11:00 +34°C° 0 mm 9 m/S 746 mmHg 14%
    12:00 +34°C° 0 mm 9 m/S 745 mmHg 14%
    13:00 +34°C° 0 mm 9 m/S 745 mmHg 14%
    14:00 +34°C° 0 mm 10 m/S 744 mmHg 13%
    15:00 +34°C° 0 mm 10 m/S 744 mmHg 14%
    16:00 +33°C° 0 mm 10 m/S 744 mmHg 15%
    17:00 +32°C° 0 mm 9 m/S 744 mmHg 16%
    18:00 +31°C° 0 mm 9 m/S 745 mmHg 19%
    19:00 +29°C° 0 mm 8 m/S 746 mmHg 21%
    20:00 +28°C° 0 mm 8 m/S 746 mmHg 24%
    21:00 +27°C° 0 mm 7 m/S 747 mmHg 26%
    22:00 +27°C° 0 mm 6 m/S 747 mmHg 28%
    23:00 +26°C° 0 mm 6 m/S 747 mmHg 30%

    23 April, Montag

    Zeit Temperatur Niederschläge Wind Luftdruck Luftfeuchtigkeit
    00:00 +24°C° 0 mm 6 m/S 747 mmHg 31%
    01:00 +25°C° 0 mm 5 m/S 747 mmHg 33%
    02:00 +23°C° 0 mm 5 m/S 747 mmHg 35%
    03:00 +23°C° 0 mm 5 m/S 747 mmHg 37%
    04:00 +22°C° 0 mm 5 m/S 747 mmHg 39%
    05:00 +22°C° 0 mm 5 m/S 747 mmHg 42%
    06:00 +23°C° 0 mm 5 m/S 748 mmHg 39%
    07:00 +23°C° 0 mm 5 m/S 748 mmHg 36%
    08:00 +25°C° 0 mm 5 m/S 749 mmHg 33%
    09:00 +27°C° 0 mm 5 m/S 749 mmHg 30%
    10:00 +28°C° 0 mm 5 m/S 748 mmHg 26%
    11:00 +29°C° 0 mm 5 m/S 748 mmHg 23%
    12:00 +30°C° 0 mm 5 m/S 748 mmHg 22%
    13:00 +30°C° 0 mm 5 m/S 747 mmHg 22%
    14:00 +32°C° 0 mm 5 m/S 746 mmHg 22%
    15:00 +30°C° 0 mm 5 m/S 746 mmHg 23%
    16:00 +30°C° 0 mm 4 m/S 746 mmHg 25%
    17:00 +29°C° 0 mm 3 m/S 746 mmHg 26%
    18:00 +28°C° 0 mm 3 m/S 746 mmHg 28%
    19:00 +27°C° 0 mm 2 m/S 747 mmHg 29%
    20:00 +27°C° 0 mm 2 m/S 747 mmHg 31%
    21:00 +27°C° 0 mm 2 m/S 747 mmHg 29%
    22:00 +27°C° 0 mm 3 m/S 747 mmHg 27%
    23:00 +27°C° 0 mm 3 m/S 747 mmHg 26%

    24 April, Dienstag

    Zeit Temperatur Niederschläge Wind Luftdruck Luftfeuchtigkeit
    00:00 +26°C° 0 mm 3 m/S 747 mmHg 26%
    01:00 +25°C° 0 mm 3 m/S 747 mmHg 26%
    02:00 +25°C° 0 mm 3 m/S 747 mmHg 26%
    03:00 +24°C° 0 mm 3 m/S 747 mmHg 27%
    04:00 +24°C° 0 mm 2 m/S 747 mmHg 29%
    05:00 +23°C° 0 mm 2 m/S 748 mmHg 30%
    06:00 +24°C° 0 mm 3 m/S 748 mmHg 28%
    07:00 +26°C° 0 mm 4 m/S 749 mmHg 26%
    08:00 +27°C° 0 mm 4 m/S 749 mmHg 24%
    09:00 +28°C° 0 mm 5 m/S 749 mmHg 22%
    10:00 +29°C° 0 mm 5 m/S 749 mmHg 20%
    11:00 +30°C° 0 mm 5 m/S 749 mmHg 18%
    12:00 +32°C° 0 mm 6 m/S 749 mmHg 18%
    13:00 +32°C° 0 mm 6 m/S 748 mmHg 19%
    14:00 +32°C° 0 mm 7 m/S 748 mmHg 20%
    15:00 +32°C° 0 mm 7 m/S 748 mmHg 22%
    16:00 +30°C° 0 mm 7 m/S 748 mmHg 25%
    17:00 +30°C° 0 mm 7 m/S 748 mmHg 28%
    18:00 +29°C° 0 mm 6 m/S 748 mmHg 30%
    19:00 +28°C° 0 mm 5 m/S 748 mmHg 33%
    20:00 +27°C° 0 mm 4 m/S 749 mmHg 36%
    21:00 +27°C° 0 mm 4 m/S 749 mmHg 37%
    22:00 +26°C° 0 mm 4 m/S 749 mmHg 37%
    23:00 +26°C° 0 mm 3 m/S 749 mmHg 37%
    Mehr zeigen